Time,TemperatureF,DewpointF,PressureIn,WindDirection,WindDirectionDegrees,WindSpeedMPH,WindSpeedGustMPH,Humidity,HourlyPrecipIn,Conditions,Clouds,dailyrainin,SoftwareType,DateUTC
2013-03-03 00:08:00,35.9,30.0,29.64,NNW,348,5.0,10.0,79,0.00,,,0.00,weatherlink.com 1.10,2013-03-03 05:08:00,
2013-03-03 00:23:00,35.7,30.0,29.64,NNW,334,5.0,9.0,79,0.00,,,0.00,weatherlink.com 1.10,2013-03-03 05:23:00,
2013-03-03 00:38:00,35.3,29.0,29.64,NW,306,4.0,11.0,78,0.00,,,0.00,weatherlink.com 1.10,2013-03-03 05:38:00,
2013-03-03 00:53:00,34.9,29.0,29.64,NNW,338,7.0,10.0,79,0.00,,,0.00,weatherlink.com 1.10,2013-03-03 05:53:00,
2013-03-03 01:08:00,34.6,29.0,29.64,NW,325,5.0,8.0,80,0.00,,,0.00,weatherlink.com 1.10,2013-03-03 06:08:00,
2013-03-03 01:23:00,34.2,29.0,29.64,NW,326,4.0,9.0,81,0.00,,,0.00,weatherlink.com 1.10,2013-03-03 06:23:00,
2013-03-03 01:38:00,34.0,29.0,29.64,NNW,339,4.0,9.0,81,0.00,,,0.00,weatherlink.com 1.10,2013-03-03 06:38:00,
2013-03-03 01:53:00,33.9,29.0,29.64,NNW,337,6.0,9.0,82,0.00,,,0.00,weatherlink.com 1.10,2013-03-03 06:53:00,
2013-03-03 02:08:00,33.8,29.0,29.63,NNW,344,4.0,9.0,82,0.00,,,0.00,weatherlink.com 1.10,2013-03-03 07:08:00,
2013-03-03 02:23:00,33.6,29.0,29.63,NW,317,6.0,9.0,83,0.00,,,0.00,weatherlink.com 1.10,2013-03-03 07:23:00,
2013-03-03 02:38:00,33.4,29.0,29.62,NW,325,4.0,10.0,84,0.00,,,0.00,weatherlink.com 1.10,2013-03-03 07:38:00,
2013-03-03 02:53:00,33.3,29.0,29.62,NW,325,4.0,8.0,84,0.00,,,0.00,weatherlink.com 1.10,2013-03-03 07:53:00,
2013-03-03 03:08:00,33.2,29.0,29.62,NW,314,5.0,9.0,84,0.00,,,0.00,weatherlink.com 1.10,2013-03-03 08:08:00,
2013-03-03 03:23:00,33.1,29.0,29.62,NW,325,2.0,9.0,85,0.00,,,0.00,weatherlink.com 1.10,2013-03-03 08:23:00,
2013-03-03 03:38:00,33.0,29.0,29.62,NW,323,5.0,9.0,85,0.00,,,0.00,weatherlink.com 1.10,2013-03-03 08:38:00,
2013-03-03 03:53:00,32.9,29.0,29.62,NW,319,4.0,9.0,85,0.00,,,0.00,weatherlink.com 1.10,2013-03-03 08:53:00,
2013-03-03 04:08:00,32.8,29.0,29.62,NW,315,6.0,10.0,85,0.00,,,0.00,weatherlink.com 1.10,2013-03-03 09:08:00,
2013-03-03 04:23:00,32.6,29.0,29.62,NW,314,5.0,7.0,87,0.00,,,0.00,weatherlink.com 1.10,2013-03-03 09:23:00,
2013-03-03 04:38:00,32.4,29.0,29.62,NNW,328,4.0,8.0,88,0.00,,,0.00,weatherlink.com 1.10,2013-03-03 09:38:00,
2013-03-03 04:53:00,32.1,29.0,29.62,NNW,331,8.0,8.0,89,0.00,,,0.00,weatherlink.com 1.10,2013-03-03 09:53:00,
2013-03-03 05:08:00,32.0,29.0,29.62,NNW,328,5.0,9.0,89,0.00,,,0.00,weatherlink.com 1.10,2013-03-03 10:08:00,
2013-03-03 05:23:00,31.9,29.0,29.62,NW,321,4.0,8.0,89,0.00,,,0.00,weatherlink.com 1.10,2013-03-03 10:23:00,
2013-03-03 05:38:00,31.8,29.0,29.62,NW,311,3.0,8.0,89,0.00,,,0.00,weatherlink.com 1.10,2013-03-03 10:38:00,
2013-03-03 05:53:00,31.8,29.0,29.63,West,276,3.0,6.0,90,0.00,,,0.00,weatherlink.com 1.10,2013-03-03 10:53:00,
2013-03-03 06:08:00,31.7,29.0,29.63,WNW,299,4.0,9.0,90,0.00,,,0.00,weatherlink.com 1.10,2013-03-03 11:08:00,
2013-03-03 06:23:00,31.6,29.0,29.63,NW,306,3.0,7.0,90,0.00,,,0.00,weatherlink.com 1.10,2013-03-03 11:23:00,
2013-03-03 06:38:00,31.4,29.0,29.63,NNW,333,4.0,8.0,90,0.00,,,0.00,weatherlink.com 1.10,2013-03-03 11:38:00,
2013-03-03 06:53:00,31.4,29.0,29.63,NW,313,2.0,5.0,91,0.00,,,0.00,weatherlink.com 1.10,2013-03-03 11:53:00,
2013-03-03 07:08:00,31.4,29.0,29.63,NW,310,1.0,7.0,92,0.00,,,0.00,weatherlink.com 1.10,2013-03-03 12:08:00,
2013-03-03 07:23:00,31.4,29.0,29.64,NNW,342,3.0,6.0,92,0.00,,,0.00,weatherlink.com 1.10,2013-03-03 12:23:00,
2013-03-03 07:38:00,31.5,30.0,29.64,NW,317,5.0,6.0,93,0.00,,,0.00,weatherlink.com 1.10,2013-03-03 12:38:00,
2013-03-03 07:53:00,31.5,30.0,29.64,NNW,328,4.0,8.0,92,0.00,,,0.00,weatherlink.com 1.10,2013-03-03 12:53:00,
2013-03-03 08:08:00,31.6,30.0,29.64,WNW,302,4.0,10.0,92,0.00,,,0.00,weatherlink.com 1.10,2013-03-03 13:08:00,
2013-03-03 08:23:00,31.9,30.0,29.63,NW,323,1.0,9.0,93,0.00,,,0.00,weatherlink.com 1.10,2013-03-03 13:23:00,
2013-03-03 08:38:00,32.5,31.0,29.63,NW,320,3.0,9.0,93,0.00,,,0.00,weatherlink.com 1.10,2013-03-03 13:38:00,
2013-03-03 08:53:00,32.6,31.0,29.63,NW,322,2.0,7.0,92,0.01,,,0.01,weatherlink.com 1.10,2013-03-03 13:53:00,
2013-03-03 09:08:00,32.7,31.0,29.63,NNW,331,4.0,9.0,92,0.01,,,0.01,weatherlink.com 1.10,2013-03-03 14:08:00,
2013-03-03 09:23:00,32.8,31.0,29.63,NNW,328,3.0,10.0,92,0.01,,,0.01,weatherlink.com 1.10,2013-03-03 14:23:00,
2013-03-03 09:38:00,33.3,31.0,29.62,NNW,340,5.0,8.0,92,0.01,,,0.01,weatherlink.com 1.10,2013-03-03 14:38:00,
2013-03-03 09:53:00,33.5,32.0,29.62,NW,322,6.0,8.0,92,0.00,,,0.01,weatherlink.com 1.10,2013-03-03 14:53:00,
2013-03-03 10:08:00,33.6,31.0,29.62,NNW,327,7.0,9.0,91,0.00,,,0.01,weatherlink.com 1.10,2013-03-03 15:08:00,
2013-03-03 10:23:00,34.0,32.0,29.62,NNW,336,4.0,9.0,92,0.00,,,0.01,weatherlink.com 1.10,2013-03-03 15:23:00,
2013-03-03 10:38:00,34.5,32.0,29.62,NNW,342,6.0,10.0,91,0.00,,,0.01,weatherlink.com 1.10,2013-03-03 15:38:00,
2013-03-03 10:54:00,34.9,33.0,29.61,NW,325,6.0,9.0,91,0.00,,,0.01,weatherlink.com 1.10,2013-03-03 15:54:00,
2013-03-03 11:09:00,34.9,33.0,29.61,NW,320,4.0,8.0,91,0.00,,,0.01,weatherlink.com 1.10,2013-03-03 16:09:00,
2013-03-03 11:24:00,35.1,33.0,29.61,NNW,327,6.0,11.0,90,0.00,,,0.01,weatherlink.com 1.10,2013-03-03 16:24:00,
2013-03-03 11:39:00,35.5,33.0,29.61,North,350,6.0,9.0,90,0.00,,,0.01,weatherlink.com 1.10,2013-03-03 16:39:00,
2013-03-03 11:54:00,36.2,33.0,29.60,NW,322,4.0,9.0,89,0.00,,,0.01,weatherlink.com 1.10,2013-03-03 16:54:00,
2013-03-03 12:09:00,36.3,33.0,29.60,NNW,328,7.0,9.0,87,0.00,,,0.01,weatherlink.com 1.10,2013-03-03 17:09:00,
2013-03-03 12:39:00,37.0,33.0,29.59,NNW,347,7.0,11.0,86,0.00,,,0.01,weatherlink.com 1.10,2013-03-03 17:39:00,
2013-03-03 12:54:00,37.3,34.0,29.58,West,281,2.0,9.0,87,0.00,,,0.01,weatherlink.com 1.10,2013-03-03 17:54:00,
2013-03-03 13:09:00,37.9,34.0,29.58,West,271,5.0,9.0,86,0.00,,,0.01,weatherlink.com 1.10,2013-03-03 18:09:00,
2013-03-03 13:24:00,38.4,34.0,29.57,NNW,346,5.0,9.0,84,0.00,,,0.01,weatherlink.com 1.10,2013-03-03 18:24:00,
2013-03-03 13:39:00,38.7,34.0,29.57,NNW,338,6.0,10.0,84,0.00,,,0.01,weatherlink.com 1.10,2013-03-03 18:39:00,
2013-03-03 13:54:00,38.2,34.0,29.57,NNW,329,7.0,10.0,85,0.00,,,0.01,weatherlink.com 1.10,2013-03-03 18:54:00,
2013-03-03 14:09:00,38.1,34.0,29.57,NNW,337,7.0,9.0,86,0.00,,,0.01,weatherlink.com 1.10,2013-03-03 19:09:00,
2013-03-03 14:24:00,38.4,35.0,29.57,NNW,336,5.0,9.0,86,0.00,,,0.01,weatherlink.com 1.10,2013-03-03 19:24:00,
2013-03-03 14:39:00,38.7,35.0,29.57,WNW,296,2.0,7.0,85,0.00,,,0.01,weatherlink.com 1.10,2013-03-03 19:39:00,
2013-03-03 14:54:00,38.9,35.0,29.56,NNW,331,10.0,10.0,84,0.00,,,0.01,weatherlink.com 1.10,2013-03-03 19:54:00,
2013-03-03 15:09:00,39.1,34.0,29.57,NW,321,6.0,10.0,82,0.00,,,0.01,weatherlink.com 1.10,2013-03-03 20:09:00,
2013-03-03 15:24:00,39.3,34.0,29.56,NNW,336,3.0,11.0,81,0.00,,,0.01,weatherlink.com 1.10,2013-03-03 20:24:00,
2013-03-03 15:39:00,39.5,34.0,29.56,NW,323,5.0,9.0,80,0.00,,,0.01,weatherlink.com 1.10,2013-03-03 20:39:00,
2013-03-03 15:54:00,39.5,34.0,29.56,NNW,339,6.0,11.0,79,0.00,,,0.01,weatherlink.com 1.10,2013-03-03 20:54:00,
2013-03-03 16:09:00,40.0,34.0,29.56,NW,321,3.0,8.0,78,0.00,,,0.01,weatherlink.com 1.10,2013-03-03 21:09:00,
2013-03-03 16:24:00,40.1,33.0,29.56,West,275,5.0,7.0,77,0.00,,,0.01,weatherlink.com 1.10,2013-03-03 21:24:00,
2013-03-03 16:39:00,40.2,34.0,29.56,WNW,301,1.0,7.0,77,0.00,,,0.01,weatherlink.com 1.10,2013-03-03 21:39:00,
2013-03-03 16:54:00,40.2,33.0,29.57,NW,304,5.0,7.0,76,0.00,,,0.01,weatherlink.com 1.10,2013-03-03 21:54:00,
2013-03-03 17:09:00,40.4,32.0,29.57,WNW,286,2.0,12.0,73,0.00,,,0.01,weatherlink.com 1.10,2013-03-03 22:09:00,
2013-03-03 17:24:00,40.2,31.0,29.57,WNW,292,3.0,11.0,71,0.00,,,0.01,weatherlink.com 1.10,2013-03-03 22:24:00,
2013-03-03 17:39:00,40.0,31.0,29.57,West,278,4.0,7.0,70,0.00,,,0.01,weatherlink.com 1.10,2013-03-03 22:39:00,
2013-03-03 17:54:00,39.9,30.0,29.57,WNW,295,4.0,6.0,69,0.00,,,0.01,weatherlink.com 1.10,2013-03-03 22:54:00,
2013-03-03 18:09:00,39.6,31.0,29.57,West,266,2.0,11.0,70,0.00,,,0.01,weatherlink.com 1.10,2013-03-03 23:09:00,
2013-03-03 18:24:00,39.4,30.0,29.58,West,281,4.0,8.0,70,0.00,,,0.01,weatherlink.com 1.10,2013-03-03 23:24:00,
2013-03-03 18:39:00,39.3,30.0,29.58,NNW,331,7.0,9.0,70,0.00,,,0.01,weatherlink.com 1.10,2013-03-03 23:39:00,
2013-03-03 18:54:00,39.1,30.0,29.58,West,281,5.0,11.0,70,0.00,,,0.01,weatherlink.com 1.10,2013-03-03 23:54:00,
2013-03-03 19:09:00,38.8,30.0,29.58,WNW,288,4.0,8.0,70,0.00,,,0.01,weatherlink.com 1.10,2013-03-04 00:09:00,
2013-03-03 19:24:00,38.6,30.0,29.58,NW,306,5.0,8.0,70,0.00,,,0.01,weatherlink.com 1.10,2013-03-04 00:24:00,
2013-03-03 19:40:00,38.5,29.0,29.58,WNW,294,7.0,9.0,70,0.01,,,0.02,weatherlink.com 1.10,2013-03-04 00:40:00,
2013-03-03 19:54:00,38.3,30.0,29.59,NW,309,6.0,12.0,71,0.01,,,0.02,weatherlink.com 1.10,2013-03-04 00:54:00,
2013-03-03 20:09:00,37.9,29.0,29.59,NNW,337,10.0,15.0,71,0.01,,,0.02,weatherlink.com 1.10,2013-03-04 01:09:00,
2013-03-03 20:25:00,37.4,29.0,29.59,NW,318,6.0,13.0,73,0.01,,,0.02,weatherlink.com 1.10,2013-03-04 01:25:00,
2013-03-03 20:39:00,36.2,30.0,29.59,NNW,336,13.0,16.0,78,0.00,,,0.02,weatherlink.com 1.10,2013-03-04 01:39:00,
2013-03-03 20:54:00,35.9,30.0,29.59,NNW,329,8.0,13.0,79,0.00,,,0.02,weatherlink.com 1.10,2013-03-04 01:54:00,
2013-03-03 21:09:00,35.6,30.0,29.59,NNW,330,4.0,13.0,79,0.00,,,0.02,weatherlink.com 1.10,2013-03-04 02:09:00,
2013-03-03 21:24:00,35.6,30.0,29.59,NW,314,6.0,11.0,79,0.00,,,0.02,weatherlink.com 1.10,2013-03-04 02:24:00,
2013-03-03 21:39:00,35.7,29.0,29.59,NNW,337,8.0,11.0,77,0.00,,,0.02,weatherlink.com 1.10,2013-03-04 02:39:00,
2013-03-03 21:54:00,35.9,29.0,29.59,NW,322,6.0,11.0,75,0.00,,,0.02,weatherlink.com 1.10,2013-03-04 02:54:00,
2013-03-03 22:09:00,35.8,28.0,29.59,WNW,296,13.0,15.0,73,0.00,,,0.02,weatherlink.com 1.10,2013-03-04 03:09:00,
2013-03-03 22:24:00,35.7,28.0,29.58,NW,323,7.0,13.0,73,0.00,,,0.02,weatherlink.com 1.10,2013-03-04 03:24:00,
2013-03-03 22:39:00,35.6,27.0,29.58,NNW,333,5.0,17.0,72,0.00,,,0.02,weatherlink.com 1.10,2013-03-04 03:39:00,
2013-03-03 22:54:00,35.5,27.0,29.58,NW,307,5.0,14.0,72,0.00,,,0.02,weatherlink.com 1.10,2013-03-04 03:54:00,
2013-03-03 23:09:00,35.4,27.0,29.59,NNW,338,6.0,12.0,72,0.00,,,0.02,weatherlink.com 1.10,2013-03-04 04:09:00,
2013-03-03 23:24:00,35.3,27.0,29.58,NW,322,9.0,16.0,72,0.00,,,0.02,weatherlink.com 1.10,2013-03-04 04:24:00,
2013-03-03 23:39:00,35.0,27.0,29.58,NNW,333,10.0,18.0,73,0.00,,,0.02,weatherlink.com 1.10,2013-03-04 04:39:00,
2013-03-03 23:54:00,34.8,27.0,29.58,NW,323,5.0,16.0,74,0.00,,,0.02,weatherlink.com 1.10,2013-03-04 04:54:00,